TECHNOSAT

Last updated on Tue Sep 22 2026 00:03:52 GMT+0000 (Coordinated Universal Time)

1 42829U 17042E 26264.37673077 .00002675 00000+0 18984-3 0 9991 2 42829 97.4408 58.4814 0018574 123.3767 236.9240 15.05432613501173
UTC large
Height (km)
Speed (km/s)
/
Latitude / Longitude
Inclination (degrees)
Orbital Period (minutes)
Azimuth
Elevation
Range (km)
Doppler Factor

Next 0 passes for location: London (51.5072 / 0.1276)

No passes found over London.
TECHNOSAT